User: anonymous   Login
Location: Pardubice
(50.0330°N, 15.7830°E)
Time: 16:15:56
(UTC+02:00)
Language:

ISS - Orbit

View from above orbital plane
View from above orbital plane
View from above satellite
View from above satellite

Ground track
Ground track

The orbit data is extracted from the following two-line orbital elements,

1 25544U 98067A   20227.52209074  .00016717  00000-0  10270-3 0  9021
2 25544  51.6411  59.7683 0001396  21.7448 338.3761 15.49163833  1053
Epoch (UTC): 14 August 2020 12:31:48
Eccentricity: 0.0001396
inclination: 51.6411°
perigee height: 418 km
apogee height: 420 km
right ascension of ascending node: 59.7683°
argument of perigee: 21.7448°
revolutions per day: 15.49163833
mean anomaly at epoch: 338.3761°
orbit number at epoch: 105

The dashed part of the orbit path shows where the satellite is in the earth's shadow,  

DLR